Weather in Credny Maydan

Ukraine / Ivano-Frankovsk District     48°38′14″N   24°45′27″E
temp.,
°C
wind,
m/s
gust,
m/s
humid.,
%
clouds,
%
prec.,
mm/h
press.,
hPa
HPBL,
m
28 february, sun
sun2823:00+2wnw6128297 0.2 1030796
02:00+1nw6138698 0.3 1031678
05:00+1nw7118889 0.1 1032845
08:000nw6128495 0.1 1032800
11:00+3nw7117576 0.0 1032894
14:00+5nw7106765 0.0 10301090
17:00+4wnw4107265 0.0 1029754
20:00+2wnw4137482 0.0 1028462
1 march, mon
mon123:00+3wnw61484100 0.3 1028925
02:00+1nw71297100 3.9 1028723
05:00+2nnw51095100 0.9 1029632
08:00+2n3894100 1.6 1031663
11:00+3nnw4685100 0.4 1032673
14:00+4nnw3472100 0.6 1034885
17:00+3nw2583100 0.1 1034400
20:00+2nw248798 0.2 1036167
2 march, tue
tue223:000wsw229182 0.0 103622
02:00−1wsw338653 0.0 103668
05:00−1wsw238116 0.0 103548
08:000w22728 0.0 103471
11:00+6wnw355330 0.0 1033398
14:00+10wnw585416 0.0 1031941
17:00+7w410720 0.0 1030386
20:00+4wnw38730 0.0 1031149
3 march, wed
wed323:00+4wnw413720 0.0 1032348
02:00+2wnw39790 0.0 1033195
05:00+1w23810 0.0 103259
08:00+2w22790 0.0 103244
11:00+7nw35670 0.0 1032560
14:00+10nnw34600 0.0 1030776
17:00+9n11680 0.0 102825
20:00+4ssw11840 0.0 102822
4 march, thu
thu423:00+3ssw12870 0.0 102822
02:00+2ssw22790 0.0 102622
05:00+1sw12740 0.0 102422
08:00+2sw11731 0.0 102223
11:00+8wsw135870 0.0 1020382
14:00+12w354946 0.0 10171130
17:00+10wsw226225 0.0 101552
20:00+4sw337815 0.0 101554